When you browse on this site, cookies collect data to enhance your experience and personalize the content and advertising you see.
Visit our Privacy Policy to learn more. By continuing to use the site, you agree to this use of cookies and data.
  • In Romania
  • List of Countries
  • For 7 days
  • Water Temperature
  • Weather Map
  • Weather Widgets
  • user-avatar
    Login

    Hourly Weather Wlora

    Today, 10 December, Tuesday

    Time Temperature Precipitation Wind Pressure Humidity
    00:00 +12°C° 1.2 mm 8 mps 756 mmHg 87%
    01:00 +12°C° 0 mm 7 mps 756 mmHg 88%
    02:00 +12°C° 2 mm 7 mps 755 mmHg 90%
    03:00 +13°C° 2 mm 6 mps 755 mmHg 92%
    04:00 +12°C° 2 mm 5 mps 755 mmHg 94%
    05:00 +12°C° 2.1 mm 5 mps 755 mmHg 93%
    06:00 +12°C° 2.1 mm 5 mps 755 mmHg 92%
    07:00 +11°C° 2.1 mm 6 mps 755 mmHg 92%
    08:00 +11°C° 1 mm 6 mps 755 mmHg 90%
    09:00 +11°C° 1 mm 6 mps 755 mmHg 88%
    10:00 +11°C° 1 mm 6 mps 755 mmHg 86%
    11:00 +12°C° 0.2 mm 5 mps 755 mmHg 84%
    12:00 +13°C° 0.2 mm 4 mps 754 mmHg 82%
    13:00 +13°C° 0.2 mm 3 mps 754 mmHg 80%
    14:00 +13°C° 0.1 mm 3 mps 754 mmHg 81%
    15:00 +14°C° 0.1 mm 2 mps 754 mmHg 83%
    16:00 +13°C° 0.1 mm 2 mps 754 mmHg 84%
    17:00 +13°C° 0.1 mm 2 mps 754 mmHg 84%
    18:00 +13°C° 0.1 mm 2 mps 754 mmHg 84%
    19:00 +12°C° 0.1 mm 2 mps 754 mmHg 85%
    20:00 +12°C° 0.2 mm 2 mps 754 mmHg 84%
    21:00 +12°C° 0.2 mm 2 mps 754 mmHg 82%
    22:00 +12°C° 0.2 mm 2 mps 754 mmHg 81%
    23:00 +12°C° 0.3 mm 2 mps 754 mmHg 81%

    Tomorrow, 11 December, Wednesday

    Time Temperature Precipitation Wind Pressure Humidity
    00:00 +12°C° 0.3 mm 2 mps 754 mmHg 81%
    01:00 +12°C° 0.3 mm 2 mps 754 mmHg 81%
    02:00 +11°C° 0.1 mm 3 mps 754 mmHg 82%
    03:00 +11°C° 0.1 mm 3 mps 754 mmHg 82%
    04:00 +11°C° 0.1 mm 3 mps 753 mmHg 82%
    05:00 +11°C° 0.1 mm 3 mps 754 mmHg 82%
    06:00 +11°C° 0.1 mm 3 mps 754 mmHg 81%
    07:00 +11°C° 0.1 mm 3 mps 754 mmHg 80%
    08:00 +11°C° 0.2 mm 3 mps 754 mmHg 76%
    09:00 +12°C° 0.2 mm 3 mps 755 mmHg 72%
    10:00 +14°C° 0.2 mm 2 mps 755 mmHg 68%
    11:00 +15°C° 0.2 mm 2 mps 755 mmHg 66%
    12:00 +15°C° 0.2 mm 2 mps 755 mmHg 63%
    13:00 +16°C° 0.2 mm 1 mps 755 mmHg 60%
    14:00 +15°C° 0.2 mm 2 mps 755 mmHg 64%
    15:00 +14°C° 0.2 mm 3 mps 755 mmHg 67%
    16:00 +13°C° 0.2 mm 4 mps 755 mmHg 70%
    17:00 +12°C° 0.1 mm 4 mps 755 mmHg 71%
    18:00 +12°C° 0.1 mm 4 mps 755 mmHg 72%
    19:00 +11°C° 0.1 mm 4 mps 755 mmHg 73%
    20:00 +11°C° 0 mm 4 mps 755 mmHg 73%
    21:00 +10°C° 0 mm 4 mps 755 mmHg 72%
    22:00 +10°C° 0 mm 4 mps 755 mmHg 72%
    23:00 +10°C° 0 mm 4 mps 755 mmHg 72%

    Day after tomorrow, 12 December, Thursday

    Time Temperature Precipitation Wind Pressure Humidity
    00:00 +10°C° 0 mm 4 mps 755 mmHg 72%
    01:00 +8°C° 0 mm 4 mps 755 mmHg 72%
    02:00 +8°C° 0 mm 4 mps 755 mmHg 72%
    03:00 +8°C° 0 mm 4 mps 754 mmHg 72%
    04:00 +8°C° 0 mm 4 mps 754 mmHg 72%
    05:00 +8°C° 0 mm 4 mps 754 mmHg 73%
    06:00 +8°C° 0 mm 4 mps 755 mmHg 74%
    07:00 +8°C° 0 mm 4 mps 755 mmHg 75%
    08:00 +10°C° 0 mm 3 mps 755 mmHg 72%
    09:00 +12°C° 0 mm 2 mps 755 mmHg 69%
    10:00 +13°C° 0 mm 2 mps 755 mmHg 67%
    11:00 +14°C° 0 mm 2 mps 755 mmHg 66%
    12:00 +14°C° 0 mm 2 mps 755 mmHg 66%
    13:00 +14°C° 0 mm 2 mps 754 mmHg 65%
    14:00 +14°C° 0.1 mm 2 mps 754 mmHg 69%
    15:00 +13°C° 0.1 mm 2 mps 754 mmHg 73%
    16:00 +13°C° 0.1 mm 2 mps 754 mmHg 78%
    17:00 +12°C° 0.2 mm 2 mps 754 mmHg 80%
    18:00 +12°C° 0.2 mm 2 mps 755 mmHg 82%
    19:00 +12°C° 0.2 mm 2 mps 755 mmHg 84%
    20:00 +12°C° 0 mm 2 mps 755 mmHg 83%
    21:00 +10°C° 0 mm 2 mps 755 mmHg 81%
    22:00 +10°C° 0 mm 2 mps 755 mmHg 80%
    23:00 +10°C° 0.2 mm 3 mps 754 mmHg 79%

    13 December, Friday

    Time Temperature Precipitation Wind Pressure Humidity
    00:00 +10°C° 0.2 mm 3 mps 754 mmHg 77%
    01:00 +10°C° 0.2 mm 4 mps 754 mmHg 76%
    02:00 +10°C° 0.6 mm 4 mps 754 mmHg 77%
    03:00 +10°C° 0.6 mm 4 mps 754 mmHg 78%
    04:00 +10°C° 0.6 mm 4 mps 753 mmHg 79%
    05:00 +10°C° 0.3 mm 4 mps 753 mmHg 79%
    06:00 +11°C° 0.3 mm 4 mps 753 mmHg 80%
    07:00 +11°C° 0.3 mm 4 mps 753 mmHg 81%
    08:00 +12°C° 0.2 mm 4 mps 753 mmHg 77%
    09:00 +13°C° 0.2 mm 4 mps 753 mmHg 74%
    10:00 +13°C° 0.2 mm 5 mps 753 mmHg 70%
    11:00 +14°C° 0.2 mm 5 mps 753 mmHg 69%
    12:00 +14°C° 0.2 mm 5 mps 752 mmHg 68%
    13:00 +14°C° 0.2 mm 6 mps 752 mmHg 67%
    14:00 +14°C° 0.1 mm 6 mps 752 mmHg 70%
    15:00 +13°C° 0.1 mm 6 mps 751 mmHg 73%
    16:00 +11°C° 0.1 mm 6 mps 751 mmHg 76%
    17:00 +11°C° 0.3 mm 7 mps 751 mmHg 77%
    18:00 +11°C° 0.3 mm 8 mps 750 mmHg 79%
    19:00 +11°C° 0.3 mm 9 mps 750 mmHg 81%
    20:00 +11°C° 0.3 mm 10 mps 749 mmHg 81%
    21:00 +11°C° 0.3 mm 11 mps 748 mmHg 82%
    22:00 +10°C° 0.3 mm 12 mps 747 mmHg 82%
    23:00 +10°C° 1 mm 13 mps 747 mmHg 82%

    14 December, Saturday

    Time Temperature Precipitation Wind Pressure Humidity
    00:00 +10°C° 1 mm 13 mps 746 mmHg 83%
    01:00 +10°C° 1 mm 13 mps 745 mmHg 84%
    02:00 +12°C° 6 mm 12 mps 744 mmHg 87%
    03:00 +12°C° 6 mm 11 mps 743 mmHg 89%
    04:00 +12°C° 6 mm 10 mps 742 mmHg 92%
    05:00 +12°C° 4.6 mm 10 mps 743 mmHg 92%
    06:00 +11°C° 4.6 mm 9 mps 744 mmHg 91%
    07:00 +10°C° 4.6 mm 9 mps 744 mmHg 91%
    08:00 +11°C° 1 mm 8 mps 745 mmHg 90%
    09:00 +11°C° 1 mm 8 mps 746 mmHg 89%
    10:00 +11°C° 1 mm 8 mps 748 mmHg 88%
    11:00 +11°C° 1.8 mm 8 mps 748 mmHg 89%
    12:00 +11°C° 1.8 mm 8 mps 748 mmHg 90%
    13:00 +10°C° 1.8 mm 8 mps 749 mmHg 91%
    14:00 +10°C° 0.6 mm 8 mps 750 mmHg 90%
    15:00 +10°C° 0.6 mm 7 mps 751 mmHg 90%
    16:00 +10°C° 0.6 mm 7 mps 751 mmHg 90%
    17:00 +10°C° 0 mm 7 mps 752 mmHg 90%
    18:00 +9°C° 0 mm 7 mps 754 mmHg 90%
    19:00 +9°C° 0 mm 7 mps 755 mmHg 90%
    20:00 +9°C° 0 mm 8 mps 756 mmHg 90%
    21:00 +9°C° 0 mm 8 mps 756 mmHg 90%
    22:00 +9°C° 0 mm 8 mps 757 mmHg 89%
    23:00 +9°C° 0 mm 8 mps 758 mmHg 88%

    15 December, Sunday

    Time Temperature Precipitation Wind Pressure Humidity
    00:00 +9°C° 0 mm 7 mps 758 mmHg 87%
    01:00 +9°C° 0 mm 6 mps 759 mmHg 85%
    02:00 +9°C° 0 mm 6 mps 759 mmHg 83%
    03:00 +9°C° 0 mm 5 mps 760 mmHg 81%
    04:00 +9°C° 0 mm 5 mps 760 mmHg 79%
    05:00 +10°C° 0 mm 4 mps 760 mmHg 77%
    06:00 +11°C° 0 mm 4 mps 761 mmHg 75%
    07:00 +11°C° 0 mm 3 mps 762 mmHg 72%
    08:00 +12°C° 0 mm 3 mps 762 mmHg 70%
    09:00 +15°C° 0 mm 2 mps 763 mmHg 68%
    10:00 +16°C° 0 mm 2 mps 763 mmHg 66%
    11:00 +16°C° 0 mm 2 mps 763 mmHg 66%
    12:00 +17°C° 0 mm 2 mps 763 mmHg 66%
    13:00 +17°C° 0 mm 2 mps 763 mmHg 66%
    14:00 +17°C° 0 mm 3 mps 764 mmHg 69%
    15:00 +15°C° 0 mm 4 mps 764 mmHg 72%
    16:00 +15°C° 0 mm 4 mps 764 mmHg 76%
    17:00 +14°C° 0 mm 5 mps 765 mmHg 76%
    18:00 +14°C° 0 mm 6 mps 765 mmHg 76%
    19:00 +13°C° 0 mm 6 mps 765 mmHg 76%
    20:00 +13°C° 0 mm 6 mps 766 mmHg 76%
    21:00 +13°C° 0 mm 6 mps 766 mmHg 77%
    22:00 +12°C° 0 mm 7 mps 767 mmHg 78%
    23:00 +12°C° 0 mm 7 mps 767 mmHg 80%
    Show more